User: anonymous   Login
Location: Newark
(54.8972°N, 99.8189°W)
Time: 18:52:01
(UTC+00:00)
Language:

Transit 2A Rocket - Orbit

View from above orbital plane
View from above orbital plane
View from above satellite
View from above satellite

Ground track
Ground track

The orbit data is extracted from the following two-line orbital elements,

1    47U 60007C   19324.55783464 -.00000026 +00000-0 +19247-4 0  9991
2    47 066.6666 356.2239 0220367 097.1069 265.5147 14.42059032104411
Epoch (UTC): 20 November 2019 13:23:16
Eccentricity: 0.0220367
inclination: 66.6666°
perigee height: 594 km
apogee height: 909 km
right ascension of ascending node: 356.2239°
argument of perigee: 97.1069°
revolutions per day: 14.42059032
mean anomaly at epoch: 265.5147°
orbit number at epoch: 10441

The dashed part of the orbit path shows where the satellite is in the earth's shadow,  

DLR